TimeMST,TemperatureF,Dew PointF,Humidity,Sea Level PressureIn,VisibilityMPH,Wind Direction,Wind SpeedMPH,Gust SpeedMPH,PrecipitationIn,Events,Conditions,WindDirDegrees,DateUTC
12:15 AM,19.4,8.6,63,30.38,10.0,Calm,Calm,-,N/A,,Clear,0,2012-11-21 07:15:00
12:35 AM,19.4,10.4,68,30.38,10.0,Calm,Calm,-,N/A,,Clear,0,2012-11-21 07:35:00
12:55 AM,17.6,8.6,68,30.37,10.0,Calm,Calm,-,N/A,,Clear,0,2012-11-21 07:55:00
1:15 AM,19.4,12.2,74,30.37,10.0,Calm,Calm,-,N/A,,Clear,0,2012-11-21 08:15:00
1:35 AM,17.6,8.6,68,30.37,10.0,ENE,3.5,-,N/A,,Clear,60,2012-11-21 08:35:00
1:55 AM,17.6,12.2,79,30.37,10.0,Calm,Calm,-,N/A,,Clear,0,2012-11-21 08:55:00
2:15 AM,15.8,6.8,68,30.38,10.0,Calm,Calm,-,N/A,,Clear,0,2012-11-21 09:15:00
2:35 AM,15.8,8.6,73,30.37,10.0,NE,3.5,-,N/A,,Clear,50,2012-11-21 09:35:00
2:55 AM,15.8,10.4,79,30.38,10.0,Calm,Calm,-,N/A,,Clear,0,2012-11-21 09:55:00
3:15 AM,17.6,10.4,73,30.37,10.0,Calm,Calm,-,N/A,,Clear,0,2012-11-21 10:15:00
3:35 AM,17.6,10.4,73,30.38,10.0,Calm,Calm,-,N/A,,Clear,0,2012-11-21 10:35:00
3:55 AM,15.8,10.4,79,30.37,10.0,North,-9999.0,-,N/A,,Clear,0,2012-11-21 10:55:00
4:15 AM,14.0,6.8,73,30.37,10.0,Calm,Calm,-,N/A,,Clear,0,2012-11-21 11:15:00
4:35 AM,12.2,8.6,85,30.37,10.0,Calm,Calm,-,N/A,,Clear,0,2012-11-21 11:35:00
4:55 AM,14.0,8.6,79,30.37,10.0,Calm,Calm,-,N/A,,Clear,0,2012-11-21 11:55:00
5:15 AM,12.2,3.2,67,30.37,10.0,Calm,Calm,-,N/A,,Clear,0,2012-11-21 12:15:00
5:35 AM,12.2,10.4,92,30.36,10.0,Calm,Calm,-,N/A,,Clear,0,2012-11-21 12:35:00
5:55 AM,12.2,8.6,85,30.36,10.0,Calm,Calm,-,N/A,,Clear,0,2012-11-21 12:55:00
6:15 AM,12.2,8.6,85,30.36,10.0,Calm,Calm,-,N/A,,Clear,0,2012-11-21 13:15:00
6:55 AM,10.4,10.4,100,30.37,10.0,Calm,Calm,-,N/A,,Clear,0,2012-11-21 13:55:00
7:15 AM,10.4,3.2,73,30.38,10.0,Calm,Calm,-,N/A,,Clear,0,2012-11-21 14:15:00
7:35 AM,12.2,10.4,92,30.38,10.0,Calm,Calm,-,N/A,,Clear,0,2012-11-21 14:35:00
7:55 AM,14.0,8.6,79,30.38,10.0,Calm,Calm,-,N/A,,Clear,0,2012-11-21 14:55:00
8:15 AM,15.8,8.6,73,30.38,10.0,Calm,Calm,-,N/A,,Clear,0,2012-11-21 15:15:00
8:55 AM,19.4,10.4,68,30.38,10.0,Calm,Calm,-,N/A,,Clear,0,2012-11-21 15:55:00
9:15 AM,21.2,10.4,63,30.37,10.0,Calm,Calm,-,N/A,,Clear,0,2012-11-21 16:15:00
9:35 AM,24.8,14.0,64,30.37,10.0,Calm,Calm,-,N/A,,Clear,0,2012-11-21 16:35:00
9:55 AM,26.6,14.0,59,30.36,10.0,Calm,Calm,-,N/A,,Clear,0,2012-11-21 16:55:00
10:15 AM,28.4,12.2,51,30.36,10.0,Calm,Calm,-,N/A,,Clear,0,2012-11-21 17:15:00
11:15 AM,35.6,14.0,41,30.31,10.0,Calm,Calm,-,N/A,,Clear,0,2012-11-21 18:15:00
11:35 AM,37.4,17.6,45,30.29,10.0,South,3.5,-,N/A,,Clear,190,2012-11-21 18:35:00
11:55 AM,37.4,15.8,41,30.28,10.0,Calm,Calm,-,N/A,,Clear,0,2012-11-21 18:55:00
12:15 PM,41.0,15.8,36,30.26,10.0,Calm,Calm,-,N/A,,Clear,0,2012-11-21 19:15:00
12:35 PM,42.8,17.6,36,30.25,10.0,Calm,Calm,-,N/A,,Clear,0,2012-11-21 19:35:00
12:55 PM,44.6,15.8,31,30.23,10.0,Calm,Calm,-,N/A,,Clear,0,2012-11-21 19:55:00
1:15 PM,44.6,14.0,29,30.22,10.0,Calm,Calm,-,N/A,,Clear,0,2012-11-21 20:15:00
1:35 PM,46.4,15.8,29,30.21,10.0,South,4.6,-,N/A,,Clear,180,2012-11-21 20:35:00
1:55 PM,46.4,15.8,29,30.20,10.0,North,3.5,-,N/A,,Clear,10,2012-11-21 20:55:00
2:15 PM,48.2,15.8,27,30.19,10.0,SW,3.5,-,N/A,,Clear,230,2012-11-21 21:15:00
2:35 PM,48.2,15.8,27,30.18,10.0,Calm,Calm,-,N/A,,Clear,0,2012-11-21 21:35:00
2:55 PM,51.8,15.8,24,30.18,10.0,Calm,Calm,-,N/A,,Clear,0,2012-11-21 21:55:00
3:15 PM,51.8,15.8,24,30.18,10.0,Calm,Calm,-,N/A,,Clear,0,2012-11-21 22:15:00
3:35 PM,50.0,14.0,24,30.18,10.0,Calm,Calm,-,N/A,,Clear,0,2012-11-21 22:35:00
3:55 PM,50.0,14.0,24,30.17,10.0,Calm,Calm,-,N/A,,Clear,0,2012-11-21 22:55:00
4:55 PM,44.6,12.2,27,30.17,10.0,Calm,Calm,-,N/A,,Clear,0,2012-11-21 23:55:00
5:15 PM,42.8,14.0,31,30.17,10.0,Calm,Calm,-,N/A,,Clear,0,2012-11-22 00:15:00
5:35 PM,37.4,10.4,33,30.18,10.0,Calm,Calm,-,N/A,,Clear,0,2012-11-22 00:35:00
5:55 PM,35.6,10.4,35,30.18,10.0,Calm,Calm,-,N/A,,Clear,0,2012-11-22 00:55:00
6:15 PM,35.6,12.2,38,30.19,10.0,Calm,Calm,-,N/A,,Clear,0,2012-11-22 01:15:00
6:35 PM,32.0,12.2,44,30.20,10.0,Calm,Calm,-,N/A,,Clear,0,2012-11-22 01:35:00
6:55 PM,32.0,12.2,44,30.20,10.0,Calm,Calm,-,N/A,,Clear,0,2012-11-22 01:55:00
7:15 PM,30.2,15.8,55,30.20,10.0,Calm,Calm,-,N/A,,Clear,0,2012-11-22 02:15:00
7:35 PM,28.4,6.8,40,30.20,10.0,East,4.6,-,N/A,,Clear,90,2012-11-22 02:35:00
7:55 PM,26.6,10.4,51,30.20,10.0,NE,5.8,-,N/A,,Clear,40,2012-11-22 02:55:00
8:15 PM,28.4,12.2,51,30.21,10.0,Calm,Calm,-,N/A,,Clear,0,2012-11-22 03:15:00
8:35 PM,24.8,10.4,54,30.22,10.0,Calm,Calm,-,N/A,,Clear,0,2012-11-22 03:35:00
9:15 PM,24.8,10.4,54,30.21,10.0,Calm,Calm,-,N/A,,Clear,0,2012-11-22 04:15:00
9:35 PM,23.0,8.6,54,30.22,10.0,Calm,Calm,-,N/A,,Clear,0,2012-11-22 04:35:00
9:55 PM,24.8,10.4,54,30.22,10.0,Calm,Calm,-,N/A,,Clear,0,2012-11-22 04:55:00
10:15 PM,23.0,8.6,54,30.22,10.0,Calm,Calm,-,N/A,,Clear,0,2012-11-22 05:15:00
10:35 PM,21.2,10.4,63,30.23,10.0,Calm,Calm,-,N/A,,Clear,0,2012-11-22 05:35:00
10:55 PM,19.4,8.6,63,30.22,10.0,Calm,Calm,-,N/A,,Clear,0,2012-11-22 05:55:00
11:15 PM,19.4,6.8,58,30.23,10.0,Calm,Calm,-,N/A,,Clear,0,2012-11-22 06:15:00
11:55 PM,21.2,8.6,58,30.23,10.0,Calm,Calm,-,N/A,,Clear,0,2012-11-22 06:55:00